Time,TemperatureF,DewpointF,PressureIn,WindDirection,WindDirectionDegrees,WindSpeedMPH,WindSpeedGustMPH,Humidity,HourlyPrecipIn,Conditions,Clouds,dailyrainin,SoftwareType,DateUTC
2013-11-21 00:02:00,74.3,73.1,30.00,NNE,15,0.0,4.0,96,0.00,,,0.00,Wunderground v.1.15,2013-11-21 05:02:00,
2013-11-21 00:04:00,74.3,73.1,30.00,NNE,13,0.0,4.0,96,0.00,,,0.00,Wunderground v.1.15,2013-11-21 05:04:00,
2013-11-21 00:10:00,74.3,73.1,30.00,NNE,13,0.0,4.0,96,0.00,,,0.00,Wunderground v.1.15,2013-11-21 05:10:00,
2013-11-21 00:12:00,74.3,73.1,30.00,NNE,13,0.0,4.0,96,0.00,,,0.00,Wunderground v.1.15,2013-11-21 05:12:00,
2013-11-21 00:18:00,74.4,73.2,30.00,NNE,13,0.0,4.0,96,0.00,,,0.00,Wunderground v.1.15,2013-11-21 05:18:00,
2013-11-21 00:20:00,74.4,73.2,30.00,NNE,13,0.0,4.0,96,0.00,,,0.00,Wunderground v.1.15,2013-11-21 05:20:00,
2013-11-21 00:26:00,74.6,73.4,30.00,ENE,70,0.0,4.0,96,0.00,,,0.00,Wunderground v.1.15,2013-11-21 05:26:00,
2013-11-21 00:32:00,74.5,73.0,30.00,East,99,1.0,4.0,95,0.00,,,0.00,Wunderground v.1.15,2013-11-21 05:32:00,
2013-11-21 00:38:00,74.1,72.6,30.00,SE,134,2.0,4.0,95,0.00,,,0.00,Wunderground v.1.15,2013-11-21 05:38:00,
2013-11-21 00:44:00,73.8,72.0,30.00,ENE,74,2.0,4.0,94,0.00,,,0.00,Wunderground v.1.15,2013-11-21 05:44:00,
2013-11-21 00:50:00,73.4,71.6,30.00,ESE,108,2.0,2.0,94,0.00,,,0.01,Wunderground v.1.15,2013-11-21 05:50:00,
2013-11-21 00:56:00,73.2,71.7,30.00,ESE,105,2.0,4.0,95,0.13,,,0.03,Wunderground v.1.15,2013-11-21 05:56:00,
2013-11-21 01:02:00,73.2,71.7,30.00,East,96,2.0,3.0,95,0.13,,,0.04,Wunderground v.1.15,2013-11-21 06:02:00,
2013-11-21 01:08:00,73.1,71.6,29.99,SE,129,2.0,4.0,95,0.08,,,0.05,Wunderground v.1.15,2013-11-21 06:08:00,
2013-11-21 01:10:00,73.1,71.9,29.99,ESE,122,1.0,4.0,96,0.08,,,0.05,Wunderground v.1.15,2013-11-21 06:10:00,
2013-11-21 01:16:00,73.1,71.9,29.99,ESE,105,1.0,4.0,96,0.07,,,0.06,Wunderground v.1.15,2013-11-21 06:16:00,
2013-11-21 01:22:00,73.0,71.8,29.99,ESE,120,1.0,4.0,96,0.07,,,0.06,Wunderground v.1.15,2013-11-21 06:22:00,
2013-11-21 01:28:00,73.0,71.8,29.99,East,82,1.0,4.0,96,0.05,,,0.06,Wunderground v.1.15,2013-11-21 06:28:00,
2013-11-21 01:34:00,73.0,71.8,30.00,East,79,1.0,4.0,96,0.00,,,0.06,Wunderground v.1.15,2013-11-21 06:34:00,
2013-11-21 01:40:00,73.0,71.8,30.00,East,94,1.0,4.0,96,0.00,,,0.06,Wunderground v.1.15,2013-11-21 06:40:00,
2013-11-21 01:46:00,72.9,71.7,30.00,NE,46,1.0,4.0,96,0.00,,,0.06,Wunderground v.1.15,2013-11-21 06:46:00,
2013-11-21 01:52:00,72.9,71.7,30.00,NNE,30,1.0,2.0,96,0.00,,,0.06,Wunderground v.1.15,2013-11-21 06:52:00,
2013-11-21 01:58:00,72.7,71.5,30.00,NE,46,2.0,5.0,96,0.00,,,0.07,Wunderground v.1.15,2013-11-21 06:58:00,
2013-11-21 02:04:00,72.6,71.4,30.00,SE,124,2.0,4.0,96,0.09,,,0.08,Wunderground v.1.15,2013-11-21 07:04:00,
2013-11-21 02:10:00,72.6,71.4,30.00,ESE,110,2.0,4.0,96,0.08,,,0.08,Wunderground v.1.15,2013-11-21 07:10:00,
2013-11-21 02:16:00,72.6,71.4,30.00,East,98,3.0,4.0,96,0.05,,,0.08,Wunderground v.1.15,2013-11-21 07:16:00,
2013-11-21 02:22:00,72.5,71.3,30.00,SE,141,4.0,5.0,96,0.00,,,0.08,Wunderground v.1.15,2013-11-21 07:22:00,
2013-11-21 02:28:00,72.4,71.2,30.00,SE,146,4.0,5.0,96,0.00,,,0.08,Wunderground v.1.15,2013-11-21 07:28:00,
2013-11-21 02:34:00,72.0,70.5,30.00,ESE,116,3.0,6.0,95,0.00,,,0.08,Wunderground v.1.15,2013-11-21 07:34:00,
2013-11-21 02:40:00,71.7,70.2,30.00,ESE,115,4.0,4.0,95,0.00,,,0.09,Wunderground v.1.15,2013-11-21 07:40:00,
2013-11-21 02:46:00,71.5,70.0,30.00,East,93,4.0,4.0,95,0.08,,,0.10,Wunderground v.1.15,2013-11-21 07:46:00,
2013-11-21 02:52:00,71.2,69.7,30.00,SE,124,3.0,4.0,95,0.07,,,0.10,Wunderground v.1.15,2013-11-21 07:52:00,
2013-11-21 02:58:00,71.2,69.7,30.00,SSE,153,2.0,4.0,95,0.04,,,0.10,Wunderground v.1.15,2013-11-21 07:58:00,
2013-11-21 03:04:00,71.2,69.7,30.00,ESE,120,1.0,4.0,95,0.00,,,0.10,Wunderground v.1.15,2013-11-21 08:04:00,
2013-11-21 03:10:00,71.2,69.7,30.00,SE,124,1.0,4.0,95,0.00,,,0.10,Wunderground v.1.15,2013-11-21 08:10:00,
2013-11-21 03:16:00,71.2,69.7,30.00,SSE,150,1.0,4.0,95,0.00,,,0.10,Wunderground v.1.15,2013-11-21 08:16:00,
2013-11-21 03:22:00,71.3,70.1,30.00,SE,140,0.0,4.0,96,0.00,,,0.10,Wunderground v.1.15,2013-11-21 08:22:00,
2013-11-21 03:28:00,71.3,70.1,30.00,South,174,0.0,4.0,96,0.00,,,0.10,Wunderground v.1.15,2013-11-21 08:28:00,
2013-11-21 03:34:00,71.3,70.1,30.00,ESE,123,0.0,4.0,96,0.00,,,0.10,Wunderground v.1.15,2013-11-21 08:34:00,
2013-11-21 03:40:00,71.3,70.1,29.99,SE,124,0.0,4.0,96,0.00,,,0.10,Wunderground v.1.15,2013-11-21 08:40:00,
2013-11-21 03:46:00,71.4,70.2,29.99,SE,124,0.0,4.0,96,0.00,,,0.10,Wunderground v.1.15,2013-11-21 08:46:00,
2013-11-21 03:52:00,71.4,70.2,30.00,SE,124,0.0,4.0,96,0.00,,,0.10,Wunderground v.1.15,2013-11-21 08:52:00,
2013-11-21 03:58:00,71.4,70.2,29.99,SE,124,0.0,4.0,96,0.00,,,0.10,Wunderground v.1.15,2013-11-21 08:58:00,
2013-11-21 04:04:00,71.4,70.2,29.99,ESE,115,0.0,0.0,96,0.00,,,0.10,Wunderground v.1.15,2013-11-21 09:04:00,
2013-11-21 04:10:00,71.4,70.2,30.00,ESE,115,0.0,0.0,96,0.00,,,0.10,Wunderground v.1.15,2013-11-21 09:10:00,
2013-11-21 04:16:00,71.3,70.1,30.00,ESE,115,0.0,0.0,96,0.00,,,0.10,Wunderground v.1.15,2013-11-21 09:16:00,
2013-11-21 04:22:00,71.3,70.1,30.00,ESE,115,0.0,0.0,96,0.00,,,0.10,Wunderground v.1.15,2013-11-21 09:22:00,
2013-11-21 04:28:00,71.2,70.0,30.00,ESE,115,0.0,0.0,96,0.00,,,0.10,Wunderground v.1.15,2013-11-21 09:28:00,
2013-11-21 04:34:00,71.1,69.9,30.00,ESE,115,0.0,0.0,96,0.00,,,0.10,Wunderground v.1.15,2013-11-21 09:34:00,
2013-11-21 04:40:00,71.1,69.9,30.01,ENE,67,0.0,0.0,96,0.00,,,0.10,Wunderground v.1.15,2013-11-21 09:40:00,
2013-11-21 04:46:00,71.0,69.8,30.01,ENE,68,0.0,0.0,96,0.00,,,0.10,Wunderground v.1.15,2013-11-21 09:46:00,
2013-11-21 04:52:00,71.1,70.2,30.01,ENE,67,0.0,0.0,97,0.00,,,0.10,Wunderground v.1.15,2013-11-21 09:52:00,
2013-11-21 04:58:00,71.0,70.1,30.01,ENE,68,0.0,0.0,97,0.00,,,0.10,Wunderground v.1.15,2013-11-21 09:58:00,
2013-11-21 05:04:00,71.0,70.1,30.01,NE,52,0.0,1.0,97,0.00,,,0.10,Wunderground v.1.15,2013-11-21 10:04:00,
2013-11-21 05:10:00,70.9,70.0,30.01,NE,53,0.0,1.0,97,0.00,,,0.10,Wunderground v.1.15,2013-11-21 10:10:00,
2013-11-21 05:16:00,70.8,69.9,30.01,NE,53,0.0,1.0,97,0.00,,,0.10,Wunderground v.1.15,2013-11-21 10:16:00,
2013-11-21 05:22:00,70.8,69.9,30.01,NE,53,0.0,1.0,97,0.00,,,0.10,Wunderground v.1.15,2013-11-21 10:22:00,
2013-11-21 05:28:00,70.7,69.8,30.01,NE,53,0.0,1.0,97,0.00,,,0.10,Wunderground v.1.15,2013-11-21 10:28:00,
2013-11-21 05:34:00,70.7,69.8,30.01,NE,53,0.0,1.0,97,0.00,,,0.10,Wunderground v.1.15,2013-11-21 10:34:00,
2013-11-21 05:40:00,70.8,69.9,30.02,NE,53,0.0,1.0,97,0.00,,,0.10,Wunderground v.1.15,2013-11-21 10:40:00,
2013-11-21 05:46:00,70.8,69.9,30.02,NE,53,0.0,1.0,97,0.00,,,0.10,Wunderground v.1.15,2013-11-21 10:46:00,
2013-11-21 05:52:00,70.8,69.9,30.02,NE,53,0.0,1.0,97,0.00,,,0.10,Wunderground v.1.15,2013-11-21 10:52:00,
2013-11-21 05:58:00,70.8,69.9,30.02,NE,53,0.0,1.0,97,0.00,,,0.10,Wunderground v.1.15,2013-11-21 10:58:00,
2013-11-21 06:04:00,70.8,69.9,30.02,NE,53,0.0,1.0,97,0.00,,,0.10,Wunderground v.1.15,2013-11-21 11:04:00,
2013-11-21 06:10:00,70.9,70.0,30.03,NE,53,0.0,1.0,97,0.00,,,0.10,Wunderground v.1.15,2013-11-21 11:10:00,
2013-11-21 06:16:00,70.9,70.0,30.03,NE,53,0.0,1.0,97,0.00,,,0.10,Wunderground v.1.15,2013-11-21 11:16:00,
2013-11-21 06:22:00,70.7,69.8,30.03,NE,53,0.0,1.0,97,0.00,,,0.10,Wunderground v.1.15,2013-11-21 11:22:00,
2013-11-21 06:28:00,70.5,69.6,30.03,NE,53,0.0,1.0,97,0.00,,,0.10,Wunderground v.1.15,2013-11-21 11:28:00,
2013-11-21 06:34:00,70.6,70.0,30.03,NE,53,0.0,1.0,98,0.00,,,0.10,Wunderground v.1.15,2013-11-21 11:34:00,
2013-11-21 06:40:00,70.9,70.3,30.03,NE,53,0.0,1.0,98,0.00,,,0.10,Wunderground v.1.15,2013-11-21 11:40:00,
2013-11-21 06:46:00,70.9,70.3,30.03,NE,53,0.0,1.0,98,0.00,,,0.10,Wunderground v.1.15,2013-11-21 11:46:00,
2013-11-21 06:52:00,70.9,70.0,30.03,NE,53,0.0,1.0,97,0.00,,,0.10,Wunderground v.1.15,2013-11-21 11:52:00,
2013-11-21 06:58:00,70.9,70.0,30.03,NE,53,0.0,1.0,97,0.00,,,0.10,Wunderground v.1.15,2013-11-21 11:58:00,
2013-11-21 07:04:00,70.9,70.0,30.03,NE,53,0.0,1.0,97,0.00,,,0.10,Wunderground v.1.15,2013-11-21 12:04:00,
2013-11-21 07:10:00,71.0,70.4,30.03,NE,53,0.0,1.0,98,0.00,,,0.10,Wunderground v.1.15,2013-11-21 12:10:00,
2013-11-21 07:16:00,71.4,70.8,30.04,NE,53,0.0,1.0,98,0.00,,,0.10,Wunderground v.1.15,2013-11-21 12:16:00,
2013-11-21 07:22:00,71.9,71.3,30.04,NE,53,0.0,1.0,98,0.00,,,0.10,Wunderground v.1.15,2013-11-21 12:22:00,
2013-11-21 07:28:00,71.8,70.9,30.04,East,80,0.0,1.0,97,0.00,,,0.10,Wunderground v.1.15,2013-11-21 12:28:00,
2013-11-21 07:34:00,71.9,71.0,30.04,ENE,77,0.0,1.0,97,0.00,,,0.10,Wunderground v.1.15,2013-11-21 12:34:00,
2013-11-21 07:40:00,72.0,71.1,30.05,ENE,77,0.0,1.0,97,0.00,,,0.10,Wunderground v.1.15,2013-11-21 12:40:00,
2013-11-21 07:46:00,72.2,71.3,30.05,ENE,75,0.0,1.0,97,0.00,,,0.10,Wunderground v.1.15,2013-11-21 12:46:00,
2013-11-21 07:52:00,72.6,71.7,30.05,ENE,57,0.0,1.0,97,0.00,,,0.10,Wunderground v.1.15,2013-11-21 12:52:00,
2013-11-21 07:58:00,73.2,72.3,30.05,NE,53,0.0,1.0,97,0.00,,,0.10,Wunderground v.1.15,2013-11-21 12:58:00,
2013-11-21 08:04:00,73.8,72.3,30.05,NE,44,0.0,2.0,95,0.00,,,0.10,Wunderground v.1.15,2013-11-21 13:04:00,
2013-11-21 08:10:00,74.3,72.8,30.05,East,91,1.0,1.0,95,0.00,,,0.10,Wunderground v.1.15,2013-11-21 13:10:00,
2013-11-21 08:16:00,74.9,73.1,30.05,NNE,26,1.0,1.0,94,0.00,,,0.10,Wunderground v.1.15,2013-11-21 13:16:00,
2013-11-21 08:22:00,75.3,73.1,30.05,NE,41,1.0,2.0,93,0.00,,,0.10,Wunderground v.1.15,2013-11-21 13:22:00,
2013-11-21 08:28:00,75.9,73.4,30.05,ENE,68,1.0,2.0,92,0.00,,,0.10,Wunderground v.1.15,2013-11-21 13:28:00,
2013-11-21 08:34:00,76.3,73.5,30.06,ENE,67,1.0,2.0,91,0.00,,,0.10,Wunderground v.1.15,2013-11-21 13:34:00,
2013-11-21 08:40:00,76.9,73.7,30.06,NNE,21,1.0,1.0,90,0.00,,,0.10,Wunderground v.1.15,2013-11-21 13:40:00,
2013-11-21 08:46:00,77.1,73.3,30.06,ESE,109,0.0,1.0,88,0.00,,,0.10,Wunderground v.1.15,2013-11-21 13:46:00,
2013-11-21 08:52:00,77.4,73.6,30.06,ENE,73,0.0,1.0,88,0.00,,,0.10,Wunderground v.1.15,2013-11-21 13:52:00,
2013-11-21 08:58:00,77.5,73.7,30.06,NE,34,1.0,1.0,88,0.00,,,0.10,Wunderground v.1.15,2013-11-21 13:58:00,
2013-11-21 09:04:00,77.7,73.9,30.06,ESE,110,1.0,1.0,88,0.00,,,0.10,Wunderground v.1.15,2013-11-21 14:04:00,
2013-11-21 09:10:00,78.1,73.6,30.07,ENE,63,1.0,1.0,86,0.00,,,0.10,Wunderground v.1.15,2013-11-21 14:10:00,
2013-11-21 09:16:00,78.4,74.2,30.07,East,82,2.0,3.0,87,0.00,,,0.10,Wunderground v.1.15,2013-11-21 14:16:00,
2013-11-21 09:22:00,78.8,73.6,30.07,East,101,2.0,3.0,84,0.00,,,0.10,Wunderground v.1.15,2013-11-21 14:22:00,
2013-11-21 09:28:00,79.4,73.8,30.07,East,87,2.0,3.0,83,0.00,,,0.10,Wunderground v.1.15,2013-11-21 14:28:00,
2013-11-21 09:34:00,79.7,74.1,30.07,East,81,2.0,4.0,83,0.00,,,0.10,Wunderground v.1.15,2013-11-21 14:34:00,
2013-11-21 09:40:00,80.2,73.1,30.07,ENE,68,2.0,3.0,79,0.00,,,0.10,Wunderground v.1.15,2013-11-21 14:40:00,
2013-11-21 09:46:00,80.9,73.8,30.07,East,89,2.0,3.0,79,0.00,,,0.10,Wunderground v.1.15,2013-11-21 14:46:00,
2013-11-21 09:52:00,81.3,73.4,30.07,ENE,67,2.0,2.0,77,0.00,,,0.10,Wunderground v.1.15,2013-11-21 14:52:00,
2013-11-21 09:58:00,81.3,73.4,30.07,ENE,59,3.0,4.0,77,0.00,,,0.10,Wunderground v.1.15,2013-11-21 14:58:00,
2013-11-21 10:04:00,81.7,73.0,30.07,NE,44,3.0,4.0,75,0.00,,,0.10,Wunderground v.1.15,2013-11-21 15:04:00,
2013-11-21 10:10:00,82.2,73.1,30.07,ENE,58,2.0,6.0,74,0.00,,,0.10,Wunderground v.1.15,2013-11-21 15:10:00,
2013-11-21 10:16:00,82.1,73.0,30.07,East,91,3.0,6.0,74,0.00,,,0.10,Wunderground v.1.15,2013-11-21 15:16:00,
2013-11-21 10:22:00,82.6,73.1,30.07,ESE,122,2.0,3.0,73,0.00,,,0.10,Wunderground v.1.15,2013-11-21 15:22:00,
2013-11-21 10:28:00,82.6,73.1,30.07,ESE,108,3.0,3.0,73,0.00,,,0.10,Wunderground v.1.15,2013-11-21 15:28:00,
2013-11-21 10:34:00,82.8,73.3,30.07,NE,46,3.0,4.0,73,0.00,,,0.10,Wunderground v.1.15,2013-11-21 15:34:00,
2013-11-21 10:40:00,81.7,72.6,30.07,ENE,74,3.0,3.0,74,0.00,,,0.10,Wunderground v.1.15,2013-11-21 15:40:00,
2013-11-21 10:46:00,81.1,72.8,30.07,ENE,63,2.0,3.0,76,0.00,,,0.10,Wunderground v.1.15,2013-11-21 15:46:00,
2013-11-21 10:52:00,80.8,72.5,30.07,East,94,1.0,3.0,76,0.00,,,0.10,Wunderground v.1.15,2013-11-21 15:52:00,
2013-11-21 10:58:00,80.7,72.4,30.07,ENE,68,2.0,3.0,76,0.00,,,0.10,Wunderground v.1.15,2013-11-21 15:58:00,
2013-11-21 11:04:00,80.7,72.0,30.06,ENE,75,3.0,6.0,75,0.00,,,0.10,Wunderground v.1.15,2013-11-21 16:04:00,
2013-11-21 11:10:00,81.5,72.4,30.06,ENE,59,3.0,3.0,74,0.00,,,0.10,Wunderground v.1.15,2013-11-21 16:10:00,
2013-11-21 11:16:00,82.7,71.1,30.06,SE,127,3.0,3.0,68,0.00,,,0.10,Wunderground v.1.15,2013-11-21 16:16:00,
2013-11-21 11:22:00,83.1,70.6,30.06,ESE,120,4.0,4.0,66,0.00,,,0.10,Wunderground v.1.15,2013-11-21 16:22:00,
2013-11-21 11:28:00,83.3,69.8,30.06,East,79,4.0,5.0,64,0.00,,,0.10,Wunderground v.1.15,2013-11-21 16:28:00,
2013-11-21 11:34:00,83.3,70.8,30.06,ENE,60,5.0,8.0,66,0.00,,,0.10,Wunderground v.1.15,2013-11-21 16:34:00,
2013-11-21 11:40:00,83.3,70.8,30.06,East,90,4.0,5.0,66,0.00,,,0.10,Wunderground v.1.15,2013-11-21 16:40:00,
2013-11-21 11:46:00,82.7,70.6,30.06,East,93,4.0,7.0,67,0.00,,,0.10,Wunderground v.1.15,2013-11-21 16:46:00,
2013-11-21 11:52:00,83.2,71.1,30.05,NE,56,4.0,6.0,67,0.00,,,0.10,Wunderground v.1.15,2013-11-21 16:52:00,
2013-11-21 11:58:00,83.6,71.0,30.05,ENE,61,4.0,7.0,66,0.00,,,0.10,Wunderground v.1.15,2013-11-21 16:58:00,
2013-11-21 12:04:00,83.1,71.9,30.05,ENE,58,5.0,7.0,69,0.00,,,0.10,Wunderground v.1.15,2013-11-21 17:04:00,
2013-11-21 12:10:00,82.0,71.7,30.05,ENE,68,6.0,6.0,71,0.00,,,0.10,Wunderground v.1.15,2013-11-21 17:10:00,
2013-11-21 12:16:00,81.7,71.0,30.05,ENE,72,5.0,8.0,70,0.00,,,0.10,Wunderground v.1.15,2013-11-21 17:16:00,
2013-11-21 12:22:00,81.4,73.5,30.05,NE,44,5.0,10.0,77,0.00,,,0.10,Wunderground v.1.15,2013-11-21 17:22:00,
2013-11-21 12:28:00,80.5,73.0,30.05,ENE,63,7.0,11.0,78,0.00,,,0.10,Wunderground v.1.15,2013-11-21 17:28:00,
2013-11-21 12:34:00,79.8,73.1,30.04,East,79,7.0,9.0,80,0.00,,,0.10,Wunderground v.1.15,2013-11-21 17:34:00,
2013-11-21 12:40:00,79.9,73.2,30.04,ENE,70,6.0,6.0,80,0.00,,,0.10,Wunderground v.1.15,2013-11-21 17:40:00,
2013-11-21 12:46:00,80.3,72.8,30.04,NE,52,5.0,8.0,78,0.00,,,0.10,Wunderground v.1.15,2013-11-21 17:46:00,
2013-11-21 12:52:00,79.8,73.4,30.04,East,79,6.0,7.0,81,0.00,,,0.10,Wunderground v.1.15,2013-11-21 17:52:00,
2013-11-21 12:58:00,79.7,74.1,30.03,NE,47,6.0,7.0,83,0.00,,,0.10,Wunderground v.1.15,2013-11-21 17:58:00,
2013-11-21 13:04:00,80.1,74.1,30.03,ENE,78,5.0,6.0,82,0.00,,,0.10,Wunderground v.1.15,2013-11-21 18:04:00,
2013-11-21 13:10:00,80.5,73.8,30.03,ENE,60,5.0,8.0,80,0.00,,,0.10,Wunderground v.1.15,2013-11-21 18:10:00,
2013-11-21 13:16:00,80.1,73.4,30.03,ENE,60,6.0,9.0,80,0.00,,,0.10,Wunderground v.1.15,2013-11-21 18:16:00,
2013-11-21 13:22:00,80.4,73.3,30.03,ENE,69,5.0,6.0,79,0.00,,,0.10,Wunderground v.1.15,2013-11-21 18:22:00,
2013-11-21 13:28:00,80.3,73.2,30.02,East,88,5.0,6.0,79,0.00,,,0.10,Wunderground v.1.15,2013-11-21 18:28:00,
2013-11-21 13:34:00,80.7,73.6,30.02,NE,55,6.0,7.0,79,0.00,,,0.10,Wunderground v.1.15,2013-11-21 18:34:00,
2013-11-21 13:40:00,80.7,72.8,30.02,ENE,59,6.0,10.0,77,0.00,,,0.10,Wunderground v.1.15,2013-11-21 18:40:00,
2013-11-21 13:46:00,80.9,73.4,30.02,NE,43,7.0,10.0,78,0.00,,,0.10,Wunderground v.1.15,2013-11-21 18:46:00,
2013-11-21 13:52:00,80.8,72.9,30.02,East,84,6.0,9.0,77,0.00,,,0.10,Wunderground v.1.15,2013-11-21 18:52:00,
2013-11-21 13:58:00,80.7,73.2,30.02,NE,40,7.0,12.0,78,0.00,,,0.10,Wunderground v.1.15,2013-11-21 18:58:00,
2013-11-21 14:04:00,80.9,73.0,30.02,East,85,6.0,7.0,77,0.00,,,0.10,Wunderground v.1.15,2013-11-21 19:04:00,
2013-11-21 14:10:00,80.9,72.6,30.02,ENE,75,6.0,6.0,76,0.00,,,0.10,Wunderground v.1.15,2013-11-21 19:10:00,
2013-11-21 14:16:00,80.7,72.4,30.01,ENE,58,5.0,6.0,76,0.00,,,0.10,Wunderground v.1.15,2013-11-21 19:16:00,
2013-11-21 14:22:00,80.4,72.5,30.01,ENE,77,5.0,5.0,77,0.00,,,0.10,Wunderground v.1.15,2013-11-21 19:22:00,
2013-11-21 14:28:00,80.3,72.8,30.01,East,80,4.0,7.0,78,0.00,,,0.10,Wunderground v.1.15,2013-11-21 19:28:00,
2013-11-21 14:34:00,80.3,71.6,30.01,ENE,72,5.0,9.0,75,0.00,,,0.10,Wunderground v.1.15,2013-11-21 19:34:00,
2013-11-21 14:40:00,80.2,71.6,30.01,ENE,75,5.0,5.0,75,0.00,,,0.10,Wunderground v.1.15,2013-11-21 19:40:00,
2013-11-21 14:46:00,80.8,72.5,30.01,ENE,78,4.0,5.0,76,0.00,,,0.10,Wunderground v.1.15,2013-11-21 19:46:00,
2013-11-21 14:52:00,80.5,71.8,30.01,East,86,5.0,7.0,75,0.00,,,0.10,Wunderground v.1.15,2013-11-21 19:52:00,
2013-11-21 14:58:00,80.3,71.6,30.01,East,96,6.0,7.0,75,0.00,,,0.10,Wunderground v.1.15,2013-11-21 19:58:00,
2013-11-21 15:04:00,80.0,71.8,30.01,ENE,62,6.0,7.0,76,0.00,,,0.10,Wunderground v.1.15,2013-11-21 20:04:00,
2013-11-21 15:10:00,79.6,71.8,30.01,NE,46,4.0,5.0,77,0.00,,,0.10,Wunderground v.1.15,2013-11-21 20:10:00,
2013-11-21 15:16:00,79.2,72.1,30.02,ESE,107,4.0,6.0,79,0.00,,,0.10,Wunderground v.1.15,2013-11-21 20:16:00,
2013-11-21 15:22:00,79.0,72.7,30.02,ENE,72,4.0,5.0,81,0.00,,,0.10,Wunderground v.1.15,2013-11-21 20:22:00,
2013-11-21 15:28:00,78.9,72.9,30.01,SE,133,3.0,5.0,82,0.00,,,0.10,Wunderground v.1.15,2013-11-21 20:28:00,
2013-11-21 15:34:00,78.7,72.7,30.01,ENE,76,3.0,4.0,82,0.00,,,0.10,Wunderground v.1.15,2013-11-21 20:34:00,
2013-11-21 15:40:00,78.5,72.2,30.01,ENE,77,4.0,4.0,81,0.00,,,0.10,Wunderground v.1.15,2013-11-21 20:40:00,
2013-11-21 15:46:00,78.6,71.5,30.01,East,82,3.0,4.0,79,0.00,,,0.10,Wunderground v.1.15,2013-11-21 20:46:00,
2013-11-21 15:52:00,78.7,70.9,30.01,East,95,3.0,5.0,77,0.00,,,0.10,Wunderground v.1.15,2013-11-21 20:52:00,
2013-11-21 15:58:00,78.9,71.1,30.02,NE,53,3.0,5.0,77,0.00,,,0.10,Wunderground v.1.15,2013-11-21 20:58:00,
2013-11-21 16:04:00,79.4,71.9,30.02,East,91,4.0,4.0,78,0.00,,,0.10,Wunderground v.1.15,2013-11-21 21:04:00,
2013-11-21 16:10:00,80.0,71.8,30.01,East,93,4.0,5.0,76,0.00,,,0.10,Wunderground v.1.15,2013-11-21 21:10:00,
2013-11-21 16:16:00,80.0,72.1,30.02,ENE,72,5.0,7.0,77,0.00,,,0.10,Wunderground v.1.15,2013-11-21 21:16:00,
2013-11-21 16:22:00,80.2,72.3,30.01,ENE,78,5.0,5.0,77,0.00,,,0.10,Wunderground v.1.15,2013-11-21 21:22:00,
2013-11-21 16:28:00,80.2,72.3,30.01,NE,39,5.0,7.0,77,0.00,,,0.10,Wunderground v.1.15,2013-11-21 21:28:00,
2013-11-21 16:34:00,80.1,72.6,30.02,NE,46,4.0,6.0,78,0.00,,,0.10,Wunderground v.1.15,2013-11-21 21:34:00,
2013-11-21 16:40:00,79.8,72.7,30.02,ENE,65,4.0,6.0,79,0.00,,,0.10,Wunderground v.1.15,2013-11-21 21:40:00,
2013-11-21 16:46:00,79.6,72.5,30.02,East,86,3.0,7.0,79,0.00,,,0.10,Wunderground v.1.15,2013-11-21 21:46:00,
2013-11-21 16:52:00,79.1,72.0,30.02,NE,55,4.0,5.0,79,0.00,,,0.10,Wunderground v.1.15,2013-11-21 21:52:00,
2013-11-21 16:58:00,78.7,72.0,30.02,East,94,4.0,6.0,80,0.00,,,0.10,Wunderground v.1.15,2013-11-21 21:58:00,
2013-11-21 17:04:00,78.1,72.5,30.03,NE,47,4.0,7.0,83,0.00,,,0.10,Wunderground v.1.15,2013-11-21 22:04:00,
2013-11-21 17:10:00,77.2,72.3,30.03,NE,44,5.0,5.0,85,0.00,,,0.10,Wunderground v.1.15,2013-11-21 22:10:00,
2013-11-21 17:16:00,76.7,72.2,30.03,NE,46,5.0,8.0,86,0.00,,,0.10,Wunderground v.1.15,2013-11-21 22:16:00,
2013-11-21 17:22:00,75.7,72.6,30.04,ENE,57,7.0,7.0,90,0.00,,,0.11,Wunderground v.1.15,2013-11-21 22:22:00,
2013-11-21 17:28:00,74.6,72.1,30.04,ENE,60,7.0,9.0,92,0.53,,,0.14,Wunderground v.1.15,2013-11-21 22:28:00,
2013-11-21 17:34:00,74.0,71.8,30.04,NE,43,6.0,9.0,93,0.61,,,0.23,Wunderground v.1.15,2013-11-21 22:34:00,
2013-11-21 17:40:00,73.3,71.2,30.05,ESE,108,7.0,9.0,93,1.43,,,0.37,Wunderground v.1.15,2013-11-21 22:40:00,
2013-11-21 17:46:00,72.7,70.9,30.05,NE,50,6.0,9.0,94,2.62,,,0.54,Wunderground v.1.15,2013-11-21 22:46:00,
2013-11-21 18:06:00,72.9,71.4,30.05,North,32767,6.0,6.0,95,1.55,,,0.67,Wunderground v.1.15,2013-11-21 23:06:00,
2013-11-21 18:12:00,72.9,71.4,30.05,East,82,3.0,6.0,95,0.10,,,0.76,Wunderground v.1.15,2013-11-21 23:12:00,
2013-11-21 18:18:00,73.0,71.8,30.05,SE,128,0.0,1.0,96,0.09,,,0.76,Wunderground v.1.15,2013-11-21 23:18:00,
2013-11-21 18:24:00,73.2,72.0,30.05,WSW,250,0.0,0.0,96,0.15,,,0.80,Wunderground v.1.15,2013-11-21 23:24:00,
2013-11-21 18:30:00,73.4,72.2,30.05,WSW,248,0.0,0.0,96,0.06,,,0.80,Wunderground v.1.15,2013-11-21 23:30:00,
2013-11-21 18:36:00,73.4,72.2,30.06,WSW,243,0.0,0.0,96,0.04,,,0.80,Wunderground v.1.15,2013-11-21 23:36:00,
2013-11-21 18:42:00,73.5,72.3,30.06,WSW,249,0.0,0.0,96,0.57,,,0.83,Wunderground v.1.15,2013-11-21 23:42:00,
2013-11-21 18:48:00,73.3,71.8,30.06,South,188,0.0,2.0,95,0.31,,,0.87,Wunderground v.1.15,2013-11-21 23:48:00,
2013-11-21 18:54:00,73.0,71.5,30.07,SSE,166,1.0,3.0,95,0.25,,,0.89,Wunderground v.1.15,2013-11-21 23:54:00,
2013-11-21 19:00:00,72.6,71.1,30.07,SSE,162,2.0,2.0,95,0.23,,,0.91,Wunderground v.1.15,2013-11-22 00:00:00,
2013-11-21 19:07:00,72.6,71.4,30.06,SSE,152,1.0,3.0,96,0.12,,,0.92,Wunderground v.1.15,2013-11-22 00:07:00,
2013-11-21 19:12:00,72.7,71.5,30.07,SSE,151,2.0,15.0,96,0.96,,,0.96,Wunderground v.1.15,2013-11-22 00:12:00,
2013-11-21 19:18:00,72.9,71.7,30.07,ESE,120,3.0,15.0,96,0.26,,,0.99,Wunderground v.1.15,2013-11-22 00:18:00,
2013-11-21 19:24:00,72.9,71.7,30.07,ESE,119,2.0,15.0,96,0.29,,,1.01,Wunderground v.1.15,2013-11-22 00:24:00,
2013-11-21 19:30:00,72.8,71.6,30.07,ESE,117,1.0,1.0,96,0.27,,,1.04,Wunderground v.1.15,2013-11-22 00:30:00,
2013-11-21 19:36:00,72.7,71.5,30.07,East,83,0.0,15.0,96,0.28,,,1.07,Wunderground v.1.15,2013-11-22 00:36:00,
2013-11-21 19:42:00,72.7,71.5,30.07,East,84,0.0,15.0,96,0.14,,,1.08,Wunderground v.1.15,2013-11-22 00:42:00,
2013-11-21 19:48:00,72.7,71.5,30.07,East,83,0.0,15.0,96,0.11,,,1.09,Wunderground v.1.15,2013-11-22 00:48:00,
2013-11-21 19:54:00,72.7,71.8,30.07,East,83,0.0,15.0,97,0.08,,,1.10,Wunderground v.1.15,2013-11-22 00:54:00,
2013-11-21 20:00:00,73.0,72.1,30.07,NW,324,0.0,15.0,97,0.08,,,1.10,Wunderground v.1.15,2013-11-22 01:00:00,
2013-11-21 20:07:00,73.3,72.4,30.07,North,349,0.0,15.0,97,0.04,,,1.11,Wunderground v.1.15,2013-11-22 01:07:00,
2013-11-21 20:12:00,73.5,72.6,30.07,NE,50,2.0,15.0,97,0.04,,,1.11,Wunderground v.1.15,2013-11-22 01:12:00,
2013-11-21 20:18:00,73.4,72.2,30.07,NE,41,2.0,15.0,96,0.06,,,1.12,Wunderground v.1.15,2013-11-22 01:18:00,
2013-11-21 20:24:00,73.2,72.0,30.07,NE,46,2.0,4.0,96,0.09,,,1.13,Wunderground v.1.15,2013-11-22 01:24:00,
2013-11-21 20:30:00,73.2,72.3,30.07,ENE,77,2.0,2.0,97,0.08,,,1.13,Wunderground v.1.15,2013-11-22 01:30:00,
2013-11-21 20:36:00,73.2,72.3,30.07,NNE,30,1.0,15.0,97,0.06,,,1.14,Wunderground v.1.15,2013-11-22 01:36:00,
2013-11-21 20:42:00,73.3,72.4,30.07,ESE,115,1.0,15.0,97,0.07,,,1.15,Wunderground v.1.15,2013-11-22 01:42:00,
2013-11-21 20:48:00,73.3,72.4,30.07,ENE,74,2.0,15.0,97,0.31,,,1.17,Wunderground v.1.15,2013-11-22 01:48:00,
2013-11-21 20:54:00,73.4,72.5,30.08,ENE,72,3.0,15.0,97,3.60,,,1.23,Wunderground v.1.15,2013-11-22 01:54:00,
2013-11-21 21:00:00,73.3,72.1,30.08,ENE,67,4.0,15.0,96,0.54,,,1.37,Wunderground v.1.15,2013-11-22 02:00:00,
2013-11-21 21:06:00,72.8,71.3,30.07,East,95,4.0,15.0,95,0.14,,,1.40,Wunderground v.1.15,2013-11-22 02:06:00,
2013-11-21 21:10:00,73.1,71.9,30.07,ENE,67,4.0,4.0,96,0.10,,,1.41,Wunderground v.1.15,2013-11-22 02:10:00,
2013-11-21 21:14:00,73.3,72.1,30.07,NE,43,3.0,15.0,96,0.10,,,1.41,Wunderground v.1.15,2013-11-22 02:14:00,
2013-11-21 21:18:00,73.4,72.2,30.07,NE,44,2.0,15.0,96,0.06,,,1.41,Wunderground v.1.15,2013-11-22 02:18:00,
2013-11-21 21:20:00,73.4,72.2,30.07,NE,44,1.0,1.0,96,0.05,,,1.41,Wunderground v.1.15,2013-11-22 02:20:00,
2013-11-21 21:24:00,73.4,72.2,30.07,NE,44,0.0,15.0,96,0.05,,,1.42,Wunderground v.1.15,2013-11-22 02:24:00,
2013-11-21 21:30:00,73.3,72.1,30.08,NW,323,0.0,15.0,96,0.05,,,1.42,Wunderground v.1.15,2013-11-22 02:30:00,
2013-11-21 21:35:00,73.3,72.1,30.08,NW,311,0.0,15.0,96,0.04,,,1.42,Wunderground v.1.15,2013-11-22 02:35:00,
2013-11-21 21:40:00,73.5,72.3,30.08,NW,311,0.0,15.0,96,0.00,,,1.42,Wunderground v.1.15,2013-11-22 02:40:00,
2013-11-21 21:46:00,73.6,72.4,30.07,NW,311,0.0,15.0,96,0.00,,,1.42,Wunderground v.1.15,2013-11-22 02:46:00,
2013-11-21 21:52:00,73.7,72.8,30.08,ENE,66,0.0,15.0,97,0.00,,,1.43,Wunderground v.1.15,2013-11-22 02:52:00,
2013-11-21 21:58:00,73.9,73.0,30.08,East,79,1.0,15.0,97,0.00,,,1.43,Wunderground v.1.15,2013-11-22 02:58:00,
2013-11-21 22:04:00,73.9,72.4,30.08,ENE,74,2.0,15.0,95,0.00,,,1.43,Wunderground v.1.15,2013-11-22 03:04:00,
2013-11-21 22:10:00,73.8,72.0,30.08,ENE,65,2.0,2.0,94,0.04,,,1.44,Wunderground v.1.15,2013-11-22 03:10:00,
2013-11-21 22:16:00,73.5,71.4,30.08,NE,51,2.0,15.0,93,0.04,,,1.44,Wunderground v.1.15,2013-11-22 03:16:00,
2013-11-21 22:22:00,73.3,71.2,30.07,NNE,25,2.0,3.0,93,0.04,,,1.44,Wunderground v.1.15,2013-11-22 03:22:00,
2013-11-21 22:28:00,73.1,71.0,30.07,ENE,67,1.0,15.0,93,0.00,,,1.44,Wunderground v.1.15,2013-11-22 03:28:00,
2013-11-21 22:34:00,73.1,71.3,30.07,NE,46,0.0,15.0,94,0.00,,,1.44,Wunderground v.1.15,2013-11-22 03:34:00,
2013-11-21 22:40:00,73.2,71.7,30.07,North,354,1.0,15.0,95,0.00,,,1.44,Wunderground v.1.15,2013-11-22 03:40:00,
2013-11-21 22:46:00,73.3,71.8,30.07,SE,132,1.0,15.0,95,0.00,,,1.44,Wunderground v.1.15,2013-11-22 03:46:00,
2013-11-21 22:52:00,73.4,71.9,30.08,SE,127,1.0,2.0,95,0.00,,,1.44,Wunderground v.1.15,2013-11-22 03:52:00,
2013-11-21 22:58:00,73.5,72.0,30.08,ESE,108,3.0,15.0,95,0.67,,,1.52,Wunderground v.1.15,2013-11-22 03:58:00,
2013-11-21 23:04:00,73.0,71.2,30.08,ENE,57,6.0,15.0,94,0.30,,,1.58,Wunderground v.1.15,2013-11-22 04:04:00,
2013-11-21 23:10:00,72.4,70.6,30.07,East,84,5.0,5.0,94,0.30,,,1.61,Wunderground v.1.15,2013-11-22 04:10:00,
2013-11-21 23:16:00,72.2,70.7,30.07,SE,127,3.0,15.0,95,0.14,,,1.62,Wunderground v.1.15,2013-11-22 04:16:00,
2013-11-21 23:22:00,72.2,70.7,30.07,ESE,105,2.0,15.0,95,0.06,,,1.62,Wunderground v.1.15,2013-11-22 04:22:00,
2013-11-21 23:28:00,72.2,70.7,30.07,NE,49,1.0,15.0,95,0.04,,,1.62,Wunderground v.1.15,2013-11-22 04:28:00,
2013-11-21 23:34:00,72.4,71.2,30.07,ENE,63,1.0,15.0,96,0.00,,,1.62,Wunderground v.1.15,2013-11-22 04:34:00,
2013-11-21 23:40:00,72.5,71.3,30.07,East,88,1.0,1.0,96,0.00,,,1.62,Wunderground v.1.15,2013-11-22 04:40:00,
2013-11-21 23:46:00,72.6,71.4,30.06,NE,53,1.0,15.0,96,0.00,,,1.62,Wunderground v.1.15,2013-11-22 04:46:00,
2013-11-21 23:52:00,72.6,71.4,30.06,NE,53,0.0,15.0,96,0.00,,,1.62,Wunderground v.1.15,2013-11-22 04:52:00,
2013-11-21 23:58:00,72.6,71.4,30.06,NE,34,0.0,15.0,96,0.00,,,1.62,Wunderground v.1.15,2013-11-22 04:58:00,